OpenBCM V1.08-5-g2f4a (Linux)

Packet Radio Mailbox

IZ3LSV

[San Dona' di P. JN]

 Login: GUEST





  
I0OJJ  > KEPS     07.12.25 12:00l 309 Lines 14710 Bytes #170 (0) @ AMSAT
BID : ORB25335.1
Read: GUEST
Subj: 2Line Orbital Elements 25335.AMSAT
Path: IZ3LSV<ED1ZAC<LU1DBQ<LU9DCE<EA2RCF<I0OJJ
Sent: 251201/0021z @:I0OJJ.ITA.EU [Rome] obcm1.08-11-2-gbfe9
From: I0OJJ @ I0OJJ.ITA.EU (Gustavo)
To:   KEPS @ AMSAT
X-Info: This message was generated automatically


QST de W1STR

AMSAT Orbital Elements for Amateur Satellites in TLE Format
From Orbital Analysis Office
New England Sci-Tech STEM Education Center
Natick MA December 01, 2025
To all radio amateurs


These element sets describe the orbits of various satellites 
in use by the amateur radio community. For details see:
www.amsat.org/keplerian-elements-formats/

A daily update of element sets is available at:
www.amsat.org/tle/daily-bulletin.txt
or without bulletin text:
www.amsat.org/tle/dailytle.txt


AO-07
1 07530U 74089B   25334.79058615 -.00000024  00000-0  14067-3 0  9999
2 07530 101.9970 340.9326 0012294 149.0849  25.7111 12.53693788335655
UO-11
1 14781U 84021B   25334.77342551  .00001742  00000-0  18592-3 0  9999
2 14781  97.7795 297.9897 0009038 114.8344 245.3815 14.90074598227571
AO-27
1 22825U 93061C   25334.76138198  .00000128  00000-0  65765-4 0  9992
2 22825  98.7162  36.9993 0007739 328.9036  31.1688 14.30869504678626
FO-29
1 24278U 96046B   25334.86923438 -.00000012  00000-0  26851-4 0  9998
2 24278  98.5468 205.5969 0348881 250.8433 105.4642 13.53261576446340
GO-32
1 25397U 98043D   25334.55427128  .00000113  00000-0  68852-4 0  9999
2 25397  98.9913 317.4857 0002280  77.2295 282.9137 14.24371503423052
ISS
1 25544U 98067A   25334.54411181  .00007982  00000-0  15180-3 0  9996
2 25544  51.6312 202.8529 0003690 187.0517 173.0420 15.49206887540966
NO-44
1 26931U 01043C   25334.65205079  .00000190  00000-0  10207-3 0  9993
2 26931  67.0520  37.7381 0007371 270.6062  89.4195 14.31843964262024
SO-50
1 27607U 02058C   25334.59448542  .00001888  00000-0  24382-3 0  9992
2 27607  64.5547  23.1346 0071612 298.8385  60.5545 14.82309836235014
CO-55
1 27844U 03031E   25334.50597186  .00000403  00000-0  19378-3 0  9998
2 27844  98.6768 340.5669 0010373  47.0461 313.1586 14.24162317163390
CO-57
1 27848U 03031J   25334.46655312  .00000346  00000-0  17124-3 0  9996
2 27848  98.6797 340.3998 0010509  63.9182 296.3077 14.23472983163105
RS-22
1 27939U 03042A   25334.89912961  .00001441  00000-0  23297-3 0  9997
2 27939  98.3365 148.7849 0011445 171.9763 297.9037 14.72913857186353
CO-58
1 28895U 05043F   25334.34085341  .00002183  00000-0  35696-3 0  9995
2 28895  98.2714 121.2098 0015337 114.9558 245.3244 14.71819221 72492
CO-65
1 32785U 08021C   25334.88564544  .00007707  00000-0  52110-3 0  9990
2 32785  97.8064 307.8089 0009336 353.2960   6.8140 15.06805189955309
CO-66
1 32791U 08021J   25334.69858639  .00018959  00000-0  77006-3 0  9999
2 32791  97.7441 319.4366 0001581 330.4420  29.6727 15.24627337956967
RS-30
1 32953U 08025A   25334.88024336  .00000027  00000-0  12243-3 0  9992
2 32953  82.5007 118.7989 0019362  26.8378 333.3700 12.43171595795057
SRMSAT
1 37841U 11058D   25334.87166828  .00000432  00000-0  90875-4 0  9993
2 37841  19.9697 179.7833 0011761 182.0519 295.1008 14.11504916729764
ZACUBE-1
1 39417U 13066B   25334.84307465  .00005948  00000-0  48860-3 0  9999
2 39417  97.8055 291.3708 0041243 185.4711 174.6067 14.98896835650992
Delfi-N3xt
1 39428U 13066N   25334.73395348  .00008021  00000-0  75737-3 0  9994
2 39428  97.8335 250.7096 0080378 144.4390 216.2223 14.91545790645001
GOMX-1
1 39430U 13066Q   25334.84175845  .00002348  00000-0  36377-3 0  9990
2 39430  97.6605 182.7110 0130652 354.8604   5.1252 14.68492314640794
LO-74
1 39440U 13066AA  25334.80050620  .00006714  00000-0  64994-3 0  9997
2 39440  97.8684 278.4899 0059060 326.3172  33.4299 14.91760759647393
AO-73
1 39444U 13066AE  25334.42788083  .00008802  00000-0  60303-3 0  9990
2 39444  97.8049 297.5604 0039821 155.6530 204.6589 15.05648935649711
DTUSAT-2
1 40030U 14033W   25334.88657223  .00008514  00000-0  50741-3 0  9994
2 40030  98.0749 315.6893 0008029 177.4526 182.6744 15.11428870622696
EO-80
1 40032U 14033Y   25334.69922444  .00009874  00000-0  58648-3 0  9999
2 40032  98.0632 314.9022 0009282 122.5821 237.6305 15.11493912622644
LILACSAT-2
1 40908U 15049K   25334.87963652  .00017338  00000-0  37930-3 0  9990
2 40908  97.4934 359.9012 0006300 248.3918 111.6659 15.44194483565077
IO-86
1 40931U 15052B   25151.18580175  .00001241  00000-0  78118-4 0  9996
2 40931   6.0006  24.0987 0012733 338.8432  21.1169 14.78805930523159
Horyu-4
1 41340U 16012D   25334.38256107  .00050539  00000-0  89348-3 0  9998
2 41340  30.9950  34.7202 0006336 112.4748 247.6573 15.49030413539633
Lapan A3
1 41603U 16040E   25334.86849296  .00004798  00000-0  16037-3 0  9992
2 41603  97.1427 332.8587 0011156  16.9595 343.2018 15.31407954524440
CAS-2T
1 41847U 16066G   25334.77540284  .00001072  00000-0  16000-3 0  9997
2 41847  98.4052  47.6321 0344180  11.4222 349.4531 14.44086971476155
TechnoSat
1 42829U 17042E   25334.41471318  .00004306  00000-0  32092-3 0  9997
2 42829  97.4013 135.1546 0019118  53.5613 306.7372 15.03248713456826
AO-91
1 43017U 17073E   25334.63975368  .00013433  00000-0  64019-3 0  9994
2 43017  97.4962 201.1125 0160749 292.4133  66.0135 15.08455169435419
S-Net D
1 43186U 18014G   25334.72713314  .00007091  00000-0  39257-3 0  9997
2 43186  97.5488 235.9136 0008726 358.4862   1.6342 15.14115504428707
S-Net B
1 43187U 18014H   25334.73500016  .00007342  00000-0  40655-3 0  9995
2 43187  97.5490 235.9011 0009235 352.4962   7.6130 15.14091291428701
S-Net A
1 43188U 18014J   25334.72689154  .00007127  00000-0  39443-3 0  9990
2 43188  97.5502 236.0676 0009131 353.7659   6.3457 15.14121782428704
S-Net C
1 43189U 18014K   25334.67183947  .00007437  00000-0  41174-3 0  9992
2 43189  97.5518 236.0565 0010307 344.4772  15.6142 15.14084848427242
Ten-Koh
1 43677U 18084G   25334.45172877  .00004090  00000-0  31940-3 0  9999
2 43677  98.0722 153.5760 0009367  57.7600 302.4530 15.01687563386325
PO-101
1 43678U 18084H   25334.83996398  .00002561  00000-0  21471-3 0  9993
2 43678  98.1029 157.8250 0007332  75.0439 285.1594 14.99337442386489
QO-100
1 43700U 18090A   25334.79595236  .00000000  00000-0  00000+0 0  9994
2 43700   0.0225 317.1866 0001469 298.0931 126.9517  1.00271074 25683
MinXSS-2
1 43758U 18099A   25334.42693968  .00028459  00000-0  87557-3 0  9991
2 43758  97.4820  41.6321 0008838 259.1410 100.8838 15.33590432383530
AO-95
1 43770U 18099N   25334.62737137  .00013158  00000-0  58775-3 0  9994
2 43770  97.4701  31.0030 0008948 333.8395  26.2388 15.21441242382975
SNUSat 2
1 43782U 18099AA  25334.59651880  .00009898  00000-0  49030-3 0  9993
2 43782  97.4381  26.2133 0009626 270.1374  89.8757 15.17929093382869
SnugLite
1 43784U 18099AC  25334.61758944  .00013462  00000-0  59512-3 0  9995
2 43784  97.4194  26.2388 0001644 265.9969  94.1079 15.21823644383068
ITASat 1
1 43786U 18099AE  25334.61843052  .00008790  00000-0  46287-3 0  9995
2 43786  97.4352  25.1842 0012631 329.9925  30.0582 15.15782518382794
EAGLET 1
1 43790U 18099AJ  25334.65235455  .00004756  00000-0  28879-3 0  9991
2 43790  97.4546  24.5014 0010448 317.2022  42.8394 15.10924522382330
ESEO
1 43792U 18099AL  25334.83475874  .00001469  00000-0  11221-3 0  9995
2 43792  97.4267  15.5064 0010159 294.6374  65.3793 15.03409621381998
JO-97
1 43803U 18099AX  25334.62341505  .00017423  00000-0  67417-3 0  9993
2 43803  97.4448  32.4834 0005316 250.7033 109.3631 15.26250777383262
Suomi 100
1 43804U 18099AY  25334.82973578  .00014592  00000-0  62520-3 0  9991
2 43804  97.4510  31.3862 0009784 258.0431 101.9709 15.22830019383171
ISAT
1 43879U 18111D   25334.27054824  .00044019  00000-0  10828-2 0  9991
2 43879  97.5896 253.4831 0004960 329.0607  31.0345 15.40483916380322
UWE-4
1 43880U 18111E   25334.76101817  .00026078  00000-0  80415-3 0  9997
2 43880  97.5846 250.9617 0008961 331.0220  29.0523 15.33536498380244
Sparrow
1 43881U 18111F   25334.72693293  .00046501  00000-0  10641-2 0  9994
2 43881  97.6077 257.6398 0005872  13.3127 346.8274 15.42648138380514
Prox-1
1 44339U 19036A   25334.74662344  .00016259  00000-0  18417-2 0  9991
2 44339  23.9974 354.1707 0006273 258.5069 101.4725 14.84708788343880
Taurus 1
1 44530U 19059C   25334.85130247  .00008801  00000-0  15140-2 0  9997
2 44530  98.6219 123.0519 0009162 210.5015 149.5657 14.68828647329494
Duchifat 3
1 44854U 19089C   25332.32203368  .00655264  17348-3  18266-2 0  9993
2 44854  36.9285 322.4147 0010265 185.4514 174.6147 15.92614449329835
TO-108
1 44881U 19093C   25334.85003312  .00001118  00000-0  13369-3 0  9992
2 44881  97.7773  46.7468 0014195  24.9088 335.2810 14.86058490321950
FloripaSat 1
1 44885U 19093G   25334.84547567  .00007162  00000-0  56474-3 0  9999
2 44885  97.8057  62.9833 0011515  14.4409 345.7141 15.01011354322860
RS-44
1 44909U 19096E   25334.81780934  .00000026  00000-0  65035-4 0  9999
2 44909  82.5196 111.5305 0216668 248.0595 109.7351 12.79745731276970
SALSAT
1 46495U 20068K   25334.53316171  .00009802  00000-0  38377-3 0  9998
2 46495  97.8776 321.1510 0008695 281.4108  78.6152 15.26001965285020
CSS (TIANHE-1)
1 48274U 21035A   25334.73382892  .00016075  00000-0  20845-3 0  9996
2 48274  41.4667  89.5523 0010491 301.4921  58.4891 15.58437522262155
TUBIN
1 48900U 21059X   25334.82678748  .00402838  70771-4  82400-3 0  9993
2 48900  97.6676 161.4527 0003005 293.7029  66.3932 15.99394977247410
CUTE
1 49263U 21088D   25334.76529176  .00036345  00000-0  49226-3 0  9990
2 49263  97.4368  57.0867 0004700 323.4109  36.6825 15.57602383231432
TeikyoSat 4
1 49396U 21102B   25334.66294190  .00002052  00000-0  13517-3 0  9990
2 49396  97.3916   6.7163 0010684 254.4024 105.6026 15.08552367222784
Z-Sat
1 49399U 21102E   25334.83294315  .00005085  00000-0  26539-3 0  9998
2 49399  97.3606  11.1351 0016290 214.4263 145.5916 15.16256017223360
